[[{"header":{"parameterUnit":"m.s-1","parameterCategory":1,"la1":30.2991,"la2":30.254,"lo1":-89.0895,"lo2":-89.0444,"dy":0.0017,"dx":0.0017,"nx":28,"ny":28,"refTime":"2025-08-31T09:00:00:Z","depth":0,"parameterNumber":2,"parameterNumberName":"U-component_of_WINDS"},"data":[0,0,0,0,0,0,0,0,0,0,0,0,0,0,0,0,0,0,0,0,0,0,0,0,0,0,0,0,0,0,0,0,0,0,0,0,0,0,0,0,0,0,0,0,0,0,0,0,0,0,0,0,0,0,0,0,0,0,-2.1447,-2.1447,0,-2.1514,-2.1515,-2.1516,-2.1442,-2.144,-2.1437,-2.1434,-2.1505,-2.1509,-2.1514,0,0,0,0,0,0,0,0,0,0,0,0,0,-2.1255,-2.1259,-2.1446,-2.1447,-2.1448,-2.1514,-2.1515,-2.1516,-2.1443,-2.144,-2.1436,-2.1433,-2.1503,-2.1509,-2.1514,0,0,0,0,0,0,0,0,0,0,0,0,0,-2.1332,-2.126,-2.1446,-2.142,-2.1418,-2.1514,-2.1515,-2.1516,-2.1444,-2.1439,-2.1435,-2.1431,-2.1501,-2.1508,-2.1515,-2.164,0,0,-2.1535,-2.1538,0,0,0,0,0,0,0,0,-2.1328,-2.1339,-2.1423,-2.1422,-2.142,-2.1465,-2.1473,-2.1558,-2.1445,-2.1434,-2.1434,-2.1429,-2.1495,-2.1502,-2.1524,-2.1644,-2.1647,-2.1536,-2.154,-2.1543,-2.1545,0,0,0,0,0,0,0,-2.1323,-2.1336,-2.1473,-2.1424,-2.1422,-2.1405,-2.1411,-2.1489,-2.1487,-2.1435,-2.1429,-2.1438,-2.1494,-2.1518,-2.1525,-2.1648,-2.1536,-2.1542,-2.1546,-2.1548,-2.1874,-2.1879,0,0,0,0,0,0,-2.132,-2.1332,-2.1471,-2.1475,-2.1363,-2.1411,-2.1418,-2.1455,-2.1486,-2.1487,-2.1442,-2.1435,-2.1508,-2.1517,-2.1527,-2.1678,-2.1543,-2.1549,-2.1553,-2.187,-2.1875,-2.188,0,0,0,0,0,0,-2.1316,-2.1333,-2.1468,-2.1402,-2.1418,-2.1419,-2.1461,-2.1459,-2.1483,-2.1492,-2.1491,-2.1467,-2.1505,-2.1518,-2.1613,-2.1679,-2.1552,-2.1558,-2.1864,-2.1872,-2.1878,-2.1979,0,0,0,0,0,0,-2.1311,-2.1332,-2.138,-2.1404,-2.1422,-2.1553,-2.1465,-2.1463,-2.1495,-2.1486,-2.1515,-2.1516,-2.1503,-2.1603,-2.162,-2.1686,-2.1563,-2.1859,-2.1868,-2.1876,-2.197,-2.1989,-2.2005,0,0,0,0,0,-2.1305,-2.1406,-2.1383,-2.14,-2.1482,-2.1557,-2.1567,-2.155,-2.15,-2.1548,-2.1554,-2.1515,-2.1669,-2.1614,-2.1631,-2.1701,-2.1854,-2.1865,-2.1875,-2.1962,-2.1985,-2.2004,0,0,0,0,0,0,-2.1391,-2.1409,-2.1383,-2.1495,-2.1525,-2.1544,-2.1605,-2.1575,-2.162,-2.161,-2.1586,-2.1593,-2.1695,-2.1707,-2.1645,-2.1825,-2.1753,-2.1768,-2.1814,-2.1835,-2.1852,-2.1849,-2.1569,0,0,0,0,0,-2.1422,-2.1482,-2.1494,-2.1592,-2.1608,-2.1604,-2.1636,-2.162,-2.165,-2.1663,-2.1675,-2.1706,-2.1761,-2.1799,-2.185,-2.197,-2.1977,-2.2027,-2.2044,-2.2059,-2.2072,-2.2138,-2.2161,-2.1915,-2.1915,-2.1914,0,0,-2.1489,-2.1506,-2.1545,-2.161,-2.1631,-2.1694,-2.1615,-2.1685,-2.1731,-2.1673,-2.1764,-2.1774,-2.1807,-2.1916,-2.1965,-2.1929,-2.2141,-2.2072,-2.2083,-2.2089,-2.2151,-2.2175,-2.2196,-2.1922,-2.192,-2.1919,0,0,-2.1644,-2.1662,-2.1746,-2.1768,-2.1801,-2.1798,-2.1818,-2.1842,-2.1846,-2.1937,-2.1895,-2.195,-2.2045,-2.2071,-2.2096,-2.2259,-2.2226,-2.2276,-2.2369,-2.2433,-2.2453,-2.247,-2.253,-2.2552,-2.2289,-2.229,-2.229,0,-2.1723,-2.1815,-2.1793,-2.1866,-2.1896,-2.1845,-2.193,-2.1953,-2.2002,-2.2024,-2.1983,-2.2102,-2.212,-2.2235,-2.2275,-2.2296,-2.232,-2.2274,-2.2451,-2.2468,-2.2484,-2.2541,-2.2564,-2.2296,-2.2295,-2.2294,-2.2294,0,-2.1912,-2.1977,-2.2041,-2.2089,-2.2125,-2.2204,-2.2194,-2.2234,-2.2214,-2.2215,-2.2308,-2.2328,-2.2383,-2.2408,-2.239,-2.2521,-2.2498,-2.2455,-2.2383,-2.2514,-2.2568,-2.2589,-2.2305,-2.2302,-2.23,-2.2299,0,0,-2.2125,-2.2158,-2.2183,-2.2204,-2.2236,-2.2286,-2.2362,-2.2415,-2.2451,-2.2485,-2.255,-2.2631,-2.2591,-2.262,-2.2603,-2.266,-2.279,-2.261,-2.261,-2.2645,-2.2938,-2.2972,-2.2998,-2.2767,-2.2771,-2.2774,-2.2936,0,-2.2282,-2.2414,-2.2396,-2.2524,-2.2584,-2.2536,-2.2602,-2.263,-2.2632,-2.2684,-2.2686,-2.2745,-2.2687,-2.2704,-2.2757,-2.2763,-2.2849,-2.2751,-2.2828,-2.2831,-2.2824,-2.3025,-2.3062,-2.3214,-2.2956,-2.296,-2.2962,0,-2.2483,-2.2525,-2.2659,-2.2682,-2.2706,-2.2767,-2.2814,-2.2863,-2.2893,-2.2891,-2.2923,-2.2896,-2.2973,-2.2898,-2.3004,-2.2938,-2.2968,-2.2975,-2.2981,-2.299,-2.2907,-2.3042,-2.3262,-2.3286,-2.2994,-2.2992,-2.2989,0,-2.2628,-2.2717,-2.2809,-2.2829,-2.2857,-2.2901,-2.2915,-2.294,-2.2973,-2.3015,-2.3036,-2.3086,-2.3114,-2.3153,-2.3141,-2.3087,-2.325,-2.3174,-2.3252,-2.3253,-2.3291,-2.329,-2.3522,-2.3306,-2.3306,-2.3305,-2.3305,0,-2.2807,-2.2891,-2.2875,-2.2932,-2.3025,-2.3002,-2.3095,-2.3103,-2.3126,-2.3184,-2.3144,-2.32,-2.3178,-2.3233,-2.3223,-2.3314,-2.3326,-2.3327,-2.3324,-2.3332,-2.3333,-2.3354,-2.3344,-2.3311,-2.331,-2.3309,-2.3308,0,-2.2986,-2.2978,-2.3075,-2.3094,-2.31,-2.3169,-2.3185,-2.3238,-2.3237,-2.3311,-2.3327,-2.3325,-2.3386,-2.3377,-2.3445,-2.3439,-2.3552,-2.3535,-2.3543,-2.354,-2.362,-2.3613,-2.3876,-2.391,-2.367,-2.3672,-2.3674,0,-2.3102,-2.3165,-2.3191,-2.3227,-2.3244,-2.3302,-2.3336,-2.3315,-2.3352,-2.339,-2.344,-2.3498,-2.3543,-2.3644,-2.3649,-2.3701,-2.3687,-2.3775,-2.3694,-2.3701,-2.3691,-2.3688,-2.3696,-2.3792,-2.3794,-2.3797,-2.3798,0,-2.3309,-2.3302,-2.3352,-2.3401,-2.3442,-2.348,-2.3514,-2.3545,-2.3528,-2.3571,-2.3634,-2.3669,-2.3739,-2.3797,-2.3846,-2.386,-2.3828,-2.3823,-2.3845,-2.3855,-2.3858,-2.386,-2.3589,-2.3818,-2.3816,-2.3815,-2.3814,-2.3813,-2.3462,-2.3517,-2.3543,-2.3601,-2.3624,-2.3656,-2.3708,-2.3712,-2.3764,-2.3819,-2.3803,-2.3875,-2.3902,-2.3964,-2.3984,-2.404,-2.4007,-2.4038,-2.4046,-2.4055,-2.4065,-2.3847,-2.4048,-2.4048,-2.4047,-2.4047,-2.4046,0,-2.3669,-2.3684,-2.3736,-2.3785,-2.383,-2.3793,-2.3829,-2.3869,-2.3932,-2.3961,-2.4006,-2.4078,-2.4135,-2.4143,-2.4197,-2.424,-2.4227,-2.4255,-2.4253,-2.4258,-2.409,-2.4067,-2.4265,-2.4265,-2.4265,-2.4265,-2.4265,-2.4265,-2.3783,-2.3875,-2.3871,-2.3973,-2.3987,-2.4056,-2.408,-2.411,-2.4132,-2.4214,-2.4261,-2.4266,-2.4287,-2.4342,-2.4392,-2.4393,-2.4416,-2.4451,-2.4447,-2.4291,-2.4269,-2.4248,-2.4227,-2.4455,-2.4456,-2.461,-2.4611,-2.4612]},{"header":{"parameterUnit":"m.s-1","parameterCategory":1,"la1":30.2991,"la2":30.254,"lo1":-89.0895,"lo2":-89.0444,"dy":0.0017,"dx":0.0017,"nx":28,"ny":28,"refTime":"2025-08-31T09:00:00:Z","depth":0,"parameterNumber":3,"parameterNumberName":"V-component_of_WINDS"},"data":[0,0,0,0,0,0,0,0,0,0,0,0,0,0,0,0,0,0,0,0,0,0,0,0,0,0,0,0,0,0,0,0,0,0,0,0,0,0,0,0,0,0,0,0,0,0,0,0,0,0,0,0,0,0,0,0,0,0,-3.6304,-3.6305,0,-3.6346,-3.6346,-3.6347,-3.63,-3.6298,-3.6296,-3.6294,-3.6334,-3.6336,-3.6339,0,0,0,0,0,0,0,0,0,0,0,0,0,-3.6181,-3.6183,-3.6304,-3.6305,-3.6305,-3.6346,-3.6346,-3.6347,-3.63,-3.6298,-3.6296,-3.6294,-3.6333,-3.6336,-3.6339,0,0,0,0,0,0,0,0,0,0,0,0,0,-3.6229,-3.6184,-3.6304,-3.6287,-3.6286,-3.6345,-3.6346,-3.6347,-3.63,-3.6298,-3.6295,-3.6293,-3.6332,-3.6336,-3.634,-3.6418,0,0,-3.6352,-3.6354,0,0,0,0,0,0,0,0,-3.6227,-3.6234,-3.6289,-3.6288,-3.6287,-3.6315,-3.6317,-3.637,-3.6301,-3.6295,-3.6294,-3.6291,-3.6329,-3.6334,-3.6347,-3.6419,-3.6421,-3.6353,-3.6355,-3.6357,-3.6358,0,0,0,0,0,0,0,-3.6223,-3.6232,-3.632,-3.629,-3.6289,-3.6276,-3.628,-3.6327,-3.6326,-3.6295,-3.6292,-3.6297,-3.6328,-3.6343,-3.6348,-3.6422,-3.6352,-3.6356,-3.6358,-3.636,-3.6559,-3.6561,0,0,0,0,0,0,-3.6222,-3.6229,-3.6319,-3.6322,-3.625,-3.628,-3.6285,-3.6308,-3.6326,-3.6326,-3.63,-3.6295,-3.6338,-3.6343,-3.6349,-3.644,-3.6357,-3.636,-3.6363,-3.6556,-3.6559,-3.6562,0,0,0,0,0,0,-3.622,-3.6231,-3.6317,-3.6275,-3.6285,-3.6285,-3.6312,-3.6311,-3.6325,-3.6329,-3.6328,-3.6315,-3.6336,-3.6343,-3.6401,-3.6441,-3.6362,-3.6366,-3.6553,-3.6557,-3.6561,-3.6625,0,0,0,0,0,0,-3.6217,-3.623,-3.6261,-3.6276,-3.6287,-3.637,-3.6315,-3.6313,-3.6333,-3.6327,-3.6344,-3.6344,-3.6334,-3.6395,-3.6405,-3.6445,-3.6369,-3.6549,-3.6554,-3.656,-3.6619,-3.6631,-3.664,0,0,0,0,0,-3.6212,-3.6277,-3.6263,-3.6274,-3.6326,-3.6373,-3.6379,-3.6368,-3.6336,-3.6366,-3.6369,-3.6343,-3.6435,-3.6401,-3.6412,-3.6454,-3.6546,-3.6553,-3.6559,-3.6614,-3.6628,-3.664,0,0,0,0,0,0,-3.6266,-3.6278,-3.6263,-3.6334,-3.6353,-3.6365,-3.6402,-3.6383,-3.641,-3.6404,-3.6387,-3.6391,-3.6453,-3.6459,-3.6421,-3.653,-3.6485,-3.6494,-3.6523,-3.6537,-3.6548,-3.6545,-3.6372,0,0,0,0,0,-3.6286,-3.6324,-3.6333,-3.6395,-3.6405,-3.6402,-3.6422,-3.6412,-3.643,-3.6437,-3.6444,-3.6461,-3.6494,-3.6516,-3.6546,-3.6619,-3.6622,-3.6654,-3.6664,-3.6673,-3.6681,-3.6719,-3.6733,-3.6584,-3.6583,-3.6583,0,0,-3.6328,-3.6339,-3.6364,-3.6406,-3.6419,-3.6458,-3.6409,-3.6452,-3.648,-3.6443,-3.6498,-3.6504,-3.6522,-3.6588,-3.6617,-3.6595,-3.6723,-3.6681,-3.6688,-3.6691,-3.6727,-3.6741,-3.6754,-3.6588,-3.6587,-3.6586,0,0,-3.6424,-3.6437,-3.649,-3.6504,-3.6525,-3.6522,-3.6535,-3.655,-3.6552,-3.6607,-3.658,-3.6612,-3.6669,-3.6683,-3.6698,-3.6799,-3.6776,-3.6809,-3.6865,-3.6903,-3.6914,-3.6925,-3.696,-3.6973,-3.6816,-3.6817,-3.6817,0,-3.6473,-3.6531,-3.6519,-3.6564,-3.6583,-3.6552,-3.6604,-3.6618,-3.6647,-3.666,-3.6635,-3.6706,-3.6716,-3.6784,-3.6808,-3.6821,-3.6834,-3.6807,-3.6914,-3.6924,-3.6934,-3.6967,-3.698,-3.682,-3.682,-3.682,-3.6819,0,-3.659,-3.6631,-3.6671,-3.6701,-3.6724,-3.6772,-3.6766,-3.679,-3.6778,-3.6778,-3.6833,-3.6845,-3.6876,-3.6892,-3.688,-3.6958,-3.6943,-3.6917,-3.6872,-3.6952,-3.6983,-3.6996,-3.6826,-3.6825,-3.6823,-3.6822,0,0,-3.6721,-3.6744,-3.6758,-3.6771,-3.6792,-3.6822,-3.6869,-3.6901,-3.6921,-3.6942,-3.698,-3.7029,-3.7004,-3.702,-3.7009,-3.7042,-3.712,-3.7011,-3.7011,-3.703,-3.7206,-3.7226,-3.7241,-3.7105,-3.7108,-3.7109,-3.7204,0,-3.6817,-3.6899,-3.6889,-3.6967,-3.7004,-3.6975,-3.7015,-3.7031,-3.7032,-3.7062,-3.7062,-3.7097,-3.7062,-3.7071,-3.7103,-3.7104,-3.7155,-3.7097,-3.7139,-3.7141,-3.7135,-3.7257,-3.7279,-3.7368,-3.7216,-3.7218,-3.722,0,-3.694,-3.6967,-3.7049,-3.7063,-3.7078,-3.7114,-3.7142,-3.7172,-3.7189,-3.7187,-3.7205,-3.7188,-3.7233,-3.7188,-3.7249,-3.721,-3.7226,-3.7229,-3.7233,-3.7236,-3.7185,-3.7263,-3.7396,-3.7409,-3.7239,-3.7237,-3.7236,0,-3.7027,-3.7083,-3.7139,-3.7151,-3.7169,-3.7195,-3.7203,-3.7218,-3.7237,-3.7261,-3.7273,-3.7302,-3.7317,-3.7339,-3.733,-3.7298,-3.7393,-3.7346,-3.7391,-3.7392,-3.7413,-3.7411,-3.7549,-3.7424,-3.7424,-3.7423,-3.7423,0,-3.7135,-3.7186,-3.7178,-3.7213,-3.7268,-3.7255,-3.7311,-3.7315,-3.7328,-3.7362,-3.7338,-3.737,-3.7356,-3.7386,-3.7379,-3.743,-3.7437,-3.7436,-3.7434,-3.7439,-3.7439,-3.7449,-3.7442,-3.7427,-3.7426,-3.7426,-3.7425,0,-3.7242,-3.7238,-3.7297,-3.7309,-3.7313,-3.7354,-3.7364,-3.7395,-3.7394,-3.7437,-3.7446,-3.7444,-3.7479,-3.7472,-3.7509,-3.7504,-3.7569,-3.7559,-3.7563,-3.7561,-3.7606,-3.7602,-3.7755,-3.7774,-3.7637,-3.7638,-3.7639,0,-3.7311,-3.735,-3.7366,-3.7387,-3.7398,-3.7433,-3.7452,-3.7441,-3.7462,-3.7484,-3.7513,-3.7545,-3.7571,-3.7627,-3.7628,-3.7657,-3.7647,-3.7699,-3.7651,-3.7654,-3.7647,-3.7645,-3.7648,-3.7708,-3.771,-3.7711,-3.7712,0,-3.7434,-3.743,-3.746,-3.749,-3.7515,-3.7537,-3.7557,-3.7576,-3.7565,-3.759,-3.7626,-3.7646,-3.7685,-3.7717,-3.7743,-3.775,-3.7729,-3.7727,-3.7739,-3.7744,-3.7745,-3.7745,-3.7589,-3.7724,-3.7722,-3.7722,-3.7721,-3.7721,-3.7523,-3.7556,-3.7572,-3.7607,-3.7621,-3.764,-3.767,-3.7673,-3.7702,-3.7734,-3.7725,-3.7765,-3.778,-3.7813,-3.7823,-3.7854,-3.7834,-3.7851,-3.7856,-3.786,-3.7865,-3.7741,-3.7858,-3.7858,-3.7858,-3.7857,-3.7857,0,-3.7644,-3.7653,-3.7685,-3.7714,-3.7741,-3.772,-3.774,-3.7764,-3.78,-3.7816,-3.7842,-3.7882,-3.7913,-3.7916,-3.7945,-3.7969,-3.796,-3.7977,-3.7975,-3.7977,-3.7881,-3.7868,-3.7984,-3.7984,-3.7984,-3.7984,-3.7984,-3.7984,-3.771,-3.7764,-3.7763,-3.7823,-3.7831,-3.7871,-3.7885,-3.7902,-3.7915,-3.7961,-3.7987,-3.799,-3.8,-3.803,-3.8057,-3.8057,-3.8068,-3.8089,-3.8085,-3.7996,-3.7984,-3.7971,-3.7959,-3.8092,-3.8092,-3.8178,-3.8179,-3.8179]}]]